Regional Weather Roundup
Issued by NWS Mt. Holly, NJ

Home | Current Version | Previous Version | Text Only | Print | Product List | Glossary On
Versions: 1 2 3 4 5 6 7 8 9 10 11 12 13 14 15 16 17 18 19 20 21 22 23 24 25 26 27 28 29 30 31 32 33 34 35 36 37 38 39 40 41 42 43 44 45 46 47 48 49 50
000
ASUS41 KPHI 202310
RWRPHI

REGIONAL WEATHER ROUNDUP
NATIONAL WEATHER SERVICE MOUNT HOLLY NJ
600 PM EST SAT DEC 20 2014

NOTE:  "FAIR" INDICATES FEW OR NO CLOUDS BELOW 12,000 FEET WITH NO
SIGNIFICANT WEATHER AND/OR OBSTRUCTIONS TO VISIBILITY.

 * = STATION DOES NOT REPORT PRECIPITATION (E.G. RAIN, SNOW, ETC.)
        OR FOG.

NJZ015>026-210000-
SOUTHERN NEW JERSEY

CITY           SKY/WX    TMP DP  RH WIND       PRES   REMARKS
POMONA         PTCLDY    31  21  66 N5        30.28S WCI  26
RIO GRANDE*    PTCLDY    30  21  69 CALM      30.28R
MILLVILLE      PTCLDY    29  24  82 CALM      30.28S
WRIGHTSTOWN    CLOUDY    31  22  69 N3        30.26R
MOUNT HOLLY    CLOUDY    32  22  66 CALM      30.29R
TRENTON        CLOUDY    32  21  64 E5        30.27S WCI  27

$$
NJZ001>014-210000-
NORTHERN NEW JERSEY

CITY           SKY/WX    TMP DP  RH WIND       PRES   REMARKS
SUSSEX         CLOUDY    30  20  66 NW3       30.26R
ANDOVER*         N/A     29  20  69 CALM      30.26R
MORRISTOWN     CLOUDY    32  23  69 NW3       30.29R
NEWARK         CLOUDY    33  21  61 NW8       30.29R WCI  26
TETERBORO      CLOUDY    33  20  58 N5        30.28R WCI  29
CALDWELL       CLOUDY    32  21  64 CALM      30.29R
SOMERVILLE     CLOUDY    32  21  64 N3        30.28R
ALLAIRE*       CLOUDY    32  19  59 NW5       30.28R WCI  27
TOMS RIVER*    CLOUDY    32  21  64 NW3       30.29S

$$
PAZ043-044-047-054-055-060>062-066>071-210000-
EASTERN PENNSYLVANIA

CITY           SKY/WX    TMP DP  RH WIND       PRES   REMARKS
PHILADELPHIA   CLOUDY    35  21  56 N5        30.29S WCI  31
NORTH PHILA    CLOUDY    34  20  56 NE3       30.30R
BLUE BELL      CLOUDY    34  27  75 CALM      30.27S
DOYLESTOWN     CLOUDY    31  22  69 CALM      30.26S
QUAKERTOWN*    CLOUDY    32  25  74 CALM      30.27S
POTTSTOWN      CLOUDY    32  21  64 CALM      30.28S
LANCASTER      MOCLDY    32  20  61 CALM      30.27R
COATESVILLE    CLOUDY    32  25  74 CALM      30.26S
READING        CLOUDY    33  21  61 CALM      30.27R
ALLENTOWN      CLOUDY    33  22  63 CALM      30.27S
MOUNT POCONO   CLOUDY    25  17  72 NW5       30.18R WCI  19
HAZLETON       CLOUDY    28  19  69 CALM      30.23R
WILKES BARRE   CLOUDY    30  20  66 NW6       30.24R WCI  24

$$
DEZALL-MDZ008-012-015-019-020-210000-
DELAWARE AND EASTERN MARYLAND

CITY           SKY/WX    TMP DP  RH WIND       PRES   REMARKS
WILMINGTON     MOCLDY    35  21  56 CALM      30.29S
DOVER          CLOUDY    31  24  74 N1        30.26S
GEORGETOWN     MOCLDY    34  26  72 NE3       30.28S
EASTON         MOCLDY    36  27  69 CALM      30.32R
PATUXENT       CLOUDY    34  24  67 SW5       30.29R WCI  30
OCEAN CITY     MOCLDY    33  26  75 CALM      30.28R
WALLOPS ISLAND CLOUDY    34  26  72 CALM      30.29R
CAMBRIDGE      MOCLDY    36  28  75 CALM      30.28S
SALISBURY      CLOUDY    37  25  61 SW3       30.28R

$$
PAZ001-021-NYZ056-072-MDZ011-DCZ001-210000-
OTHER NEARBY LOCATIONS

CITY           SKY/WX    TMP DP  RH WIND       PRES   REMARKS
HARRISBURG     PTCLDY    28  20  71 NW6       30.28R WCI  22
STATE COLLEGE  CLOUDY    28  21  74 CALM      30.23R
WILLIAMSPORT   CLOUDY    32  20  61 CALM      30.25F
BINGHAMTON     CLOUDY    25  20  81 CALM      30.20R
NEW YORK CITY  CLOUDY    33  20  58 VRB3      30.30R
BALTIMORE      CLOUDY    34  23  64 CALM      30.28R
WASHINGTON DC  CLOUDY    39  20  46 W5        30.30R

$$



USA.gov is the U.S. government's official web portal to all federal, state and local government web resources and services.